Stations météo

réclame
Mon MeteoGroup
Santiago de Compostela/Labacolla, Espagne (8042): Température de l'air & dewpoint: 13.11.2017 18:00:00 - 19.11.2017 18:00:00 (CET)Santiago de Compostela/Labacolla, Espagne (8042): Vitesse du vent: 13.11.2017 18:00:00 - 19.11.2017 18:00:00 (CET)Santiago de Compostela/Labacolla, Espagne (8042): Direction du vent: 13.11.2017 18:00:00 - 19.11.2017 18:00:00 (CET)Santiago de Compostela/Labacolla, Espagne (8042): reduced air pressure: 13.11.2017 18:00:00 - 19.11.2017 18:00:00 (CET)Santiago de Compostela/Labacolla, Espagne (8042): visibility: 13.11.2017 18:00:00 - 19.11.2017 18:00:00 (CET)
Date & Time tt [°C] td [°C] ff [km/h] ff [knt] dd ppp [hPa] vv [km]
19.11.2017 18:00:00 14,3 9,4 5 3 WNW 1021,8 30
19.11.2017 17:00:00 18,0 9,3 4 2 N 1021,1 30
19.11.2017 16:00:00 19,3 7,4 0 0 N 1020,6 40
19.11.2017 15:00:00 18,3 7,5 0 0 N 1021,1 30
19.11.2017 14:00:00 18,3 6,9 0 0 N 1021,5 40
19.11.2017 13:00:00 16,6 6,8 5 3 SSE 1022,3 40
19.11.2017 12:00:00 14,4 5,9 4 2 SE 1023,1 30
19.11.2017 11:00:00 12,9 6,4 2 1 SE 1023,0 30
19.11.2017 10:00:00 11,3 5,2 4 2 SSE 1023,1 40
19.11.2017 09:00:00 9,2 3,8 0 0 N 1022,9 30
19.11.2017 08:00:00 7,9 3,0 0 0 N 1022,5 30
19.11.2017 07:00:00 7,9 3,9 4 2 SE 1022,2 30
19.11.2017 06:00:00 7,6 4,4 2 1 SE 1022,3 30
19.11.2017 05:00:00 7,6 5,0 2 1 SSE 1022,2 30
19.11.2017 04:00:00 8,0 6,1 0 0 N 1022,5 15
19.11.2017 03:00:00 7,7 5,9 4 2 SSE 1022,3 12
19.11.2017 02:00:00 8,0 6,8 0 0 N 1022,5 13
19.11.2017 01:00:00 7,9 6,5 0 0 N 1022,4 15
19.11.2017 00:00:00 8,5 6,8 0 0 N 1022,2 18
18.11.2017 23:00:00 8,7 7,1 2 1 ESE 1022,3 16
18.11.2017 22:00:00 9,5 7,1 8 4 ESE 1022,2 30
18.11.2017 21:00:00 10,7 7,2 4 2 ESE 1022,1 30
18.11.2017 20:00:00 12,1 6,9 4 2 ESE 1021,9 30
18.11.2017 19:00:00 12,4 8,3 0 0 N 1021,5 30
18.11.2017 18:00:00 15,0 8,9 0 0 N 1020,9 30
18.11.2017 17:00:00 17,8 9,3 0 0 N 1020,2 30
18.11.2017 16:00:00 18,4 7,5 0 0 N 1019,9 40
18.11.2017 15:00:00 17,8 6,8 2 1 ENE 1020,3 30
18.11.2017 14:00:00 17,2 8,2 0 0 N 1020,8 40
18.11.2017 13:00:00 15,8 7,3 4 2 E 1021,6 40
18.11.2017 12:00:00 13,6 6,7 4 2 E 1022,3 30
18.11.2017 11:00:00 11,1 6,3 8 4 ESE 1022,6 27
18.11.2017 10:00:00 9,4 5,6 8 4 E 1022,9 6
18.11.2017 09:00:00 6,9 5,3 8 4 ESE 1022,8 15
18.11.2017 08:00:00 6,2 4,7 2 1 E 1022,5 10
18.11.2017 07:00:00 7,0 5,5 5 3 ESE 1022,1 4,0
18.11.2017 06:00:00 6,3 5,6 2 1 E 1022,2 7
18.11.2017 05:00:00 6,3 5,3 2 1 ENE 1022,4 -
18.11.2017 04:00:00 6,8 5,7 0 0 N 1022,6 6
18.11.2017 03:00:00 7,5 6,3 4 2 ESE 1022,2 6
18.11.2017 02:00:00 6,9 5,8 5 3 ESE 1022,9 4,9
18.11.2017 01:00:00 7,4 5,9 0 0 N 1023,3 9
18.11.2017 00:00:00 8,3 6,6 4 2 ESE 1022,9 11
17.11.2017 23:00:00 8,3 6,8 0 0 N 1023,3 10
17.11.2017 22:00:00 9,6 7,0 2 1 ESE 1022,4 15
17.11.2017 21:00:00 10,1 8,0 0 0 N 1022,2 17
17.11.2017 20:00:00 12,0 9,2 0 0 N 1022,0 24
17.11.2017 19:00:00 12,3 9,5 0 0 N 1021,5 30
17.11.2017 18:00:00 13,3 10,1 4 2 N 1021,1 24
17.11.2017 17:00:00 16,0 11,0 0 0 N 1020,5 23
17.11.2017 16:00:00 16,7 10,1 4 2 N 1020,5 30
17.11.2017 15:00:00 16,6 9,2 0 0 N 1020,7 30
17.11.2017 14:00:00 16,3 9,6 2 1 E 1021,0 30
17.11.2017 13:00:00 14,6 9,7 2 1 ENE 1021,8 30
17.11.2017 12:00:00 12,4 8,7 4 2 E 1022,8 21
17.11.2017 11:00:00 9,9 7,7 0 0 N 1023,2 13
17.11.2017 10:00:00 7,8 7,0 0 0 N 1023,5 15
17.11.2017 09:00:00 5,7 5,4 0 0 N 1023,7 5
17.11.2017 08:00:00 5,5 5,2 0 0 N 1023,4 3,2
17.11.2017 07:00:00 5,6 5,3 4 2 N 1023,3 5
17.11.2017 06:00:00 5,8 5,5 0 0 N 1023,3 4,3
17.11.2017 05:00:00 5,8 5,4 2 1 NNE 1023,1 3,1
17.11.2017 04:00:00 4,0 3,6 4 2 NW 1023,6 10
17.11.2017 03:00:00 6,1 5,5 0 0 N 1023,2 13
17.11.2017 02:00:00 6,4 5,9 2 1 N 1023,5 11
17.11.2017 01:00:00 5,3 5,0 2 1 NNW 1023,8 0,9
17.11.2017 00:00:00 6,2 5,9 4 2 NNW 1023,8 1,2
16.11.2017 23:00:00 8,4 8,1 0 0 N 1023,4 6
16.11.2017 22:00:00 8,3 7,9 0 0 N 1023,2 0,7
16.11.2017 21:00:00 8,2 7,6 5 3 NW 1023,2 3,3
16.11.2017 20:00:00 9,2 8,1 9 5 NNW 1023,0 8
16.11.2017 19:00:00 10,6 8,7 11 6 NNW 1022,5 15
16.11.2017 18:00:00 12,0 7,9 13 7 N 1021,9 30
16.11.2017 17:00:00 14,8 7,8 9 5 N 1021,1 30
16.11.2017 16:00:00 15,4 8,6 11 6 NNW 1021,0 30
16.11.2017 15:00:00 16,0 7,9 11 6 NW 1020,8 30
16.11.2017 14:00:00 15,8 6,9 0 0 N 1021,3 30
16.11.2017 13:00:00 14,1 7,1 0 0 N 1021,7 30
16.11.2017 12:00:00 11,0 6,0 0 0 N 1022,9 28
16.11.2017 11:00:00 9,9 5,4 0 0 N 1023,0 30
16.11.2017 10:00:00 8,2 5,0 2 1 S 1023,0 6
16.11.2017 09:00:00 6,3 4,4 0 0 N 1022,8 30
16.11.2017 08:00:00 1,6 0,9 0 0 N 1023,2 14
16.11.2017 07:00:00 2,0 1,6 8 4 W 1022,7 3,0
16.11.2017 06:00:00 5,2 3,0 0 0 N 1021,9 25
16.11.2017 05:00:00 5,4 4,4 0 0 N 1021,7 12
16.11.2017 04:00:00 3,4 2,7 0 0 N 1022,1 1,0
16.11.2017 03:00:00 4,6 3,4 0 0 N 1021,7 15
16.11.2017 02:00:00 6,3 4,3 0 0 N 1021,5 26
16.11.2017 01:00:00 5,2 4,1 0 0 N 1021,8 15
16.11.2017 00:00:00 7,6 5,9 0 0 N 1021,4 20
15.11.2017 23:00:00 7,6 5,5 0 0 N 1021,7 19
15.11.2017 22:00:00 8,5 5,7 0 0 N 1021,4 25
15.11.2017 21:00:00 9,1 4,7 0 0 N 1021,2 30
15.11.2017 20:00:00 9,2 2,4 0 0 N 1021,1 30
15.11.2017 19:00:00 9,2 2,7 5 3 W 1020,8 30
15.11.2017 18:00:00 12,9 5,0 5 3 W 1020,0 30
15.11.2017 17:00:00 15,1 5,2 5 3 W 1019,4 30
15.11.2017 16:00:00 16,2 5,7 5 3 W 1019,0 30
15.11.2017 15:00:00 16,6 3,7 4 2 W 1019,2 30
15.11.2017 14:00:00 16,2 5,1 4 2 SW 1019,7 30
15.11.2017 13:00:00 15,0 5,3 4 2 S 1020,5 30
15.11.2017 12:00:00 13,3 5,2 4 2 SE 1021,3 30
15.11.2017 11:00:00 11,6 3,9 5 3 SSE 1021,6 30
15.11.2017 10:00:00 9,6 3,0 8 4 S 1021,4 30
15.11.2017 09:00:00 7,3 2,6 8 4 S 1021,4 30
15.11.2017 08:00:00 7,4 2,4 2 1 S 1020,8 30
15.11.2017 07:00:00 6,5 2,6 5 3 S 1020,4 15
15.11.2017 06:00:00 6,7 3,1 4 2 S 1020,3 30
15.11.2017 05:00:00 7,8 3,1 5 3 SSE 1020,0 30
15.11.2017 04:00:00 6,8 4,1 0 0 N 1020,2 30
15.11.2017 03:00:00 5,0 3,8 4 2 SW 1020,5 30
15.11.2017 02:00:00 6,4 3,4 0 0 N 1020,5 30
15.11.2017 01:00:00 7,4 4,5 0 0 N 1020,4 30
15.11.2017 00:00:00 8,2 4,4 0 0 N 1020,7 30
14.11.2017 23:00:00 8,2 4,6 0 0 N 1021,0 30
14.11.2017 22:00:00 8,5 4,5 0 0 N 1020,8 30
14.11.2017 21:00:00 9,7 4,7 0 0 N 1020,7 30
14.11.2017 20:00:00 10,4 4,7 4 2 ESE 1020,6 30
14.11.2017 19:00:00 11,2 4,2 0 0 N 1020,6 30
14.11.2017 18:00:00 11,8 5,0 0 0 N 1020,3 30
14.11.2017 17:00:00 14,2 5,7 0 0 N 1020,3 30
14.11.2017 16:00:00 14,6 5,2 0 0 N 1020,3 40
14.11.2017 15:00:00 13,9 4,6 4 2 ENE 1021,1 30
14.11.2017 14:00:00 13,1 3,7 5 3 E 1021,9 40
14.11.2017 13:00:00 11,8 3,7 4 2 E 1022,9 40
14.11.2017 12:00:00 10,2 3,5 4 2 E 1023,9 30
14.11.2017 11:00:00 8,4 3,0 5 3 E 1024,1 30
14.11.2017 10:00:00 6,5 2,4 4 2 E 1024,6 40
14.11.2017 09:00:00 4,6 1,4 4 2 E 1025,0 30
14.11.2017 08:00:00 4,1 1,1 4 2 E 1025,1 30
14.11.2017 07:00:00 3,8 1,3 4 2 E 1024,9 30
14.11.2017 06:00:00 4,2 1,4 2 1 E 1025,2 30
14.11.2017 05:00:00 4,5 1,5 4 2 E 1024,9 30
14.11.2017 04:00:00 4,2 1,4 0 0 N 1025,5 30
14.11.2017 03:00:00 4,7 1,0 0 0 N 1025,8 30
14.11.2017 02:00:00 5,0 1,3 0 0 N 1025,7 30
14.11.2017 01:00:00 5,7 1,2 0 0 N 1026,0 30
14.11.2017 00:00:00 6,2 1,7 4 2 NNE 1026,2 30
13.11.2017 23:00:00 6,3 2,0 4 2 NNE 1026,7 30
13.11.2017 22:00:00 6,8 1,9 4 2 NNE 1026,5 30
13.11.2017 21:00:00 7,2 3,1 8 4 NNE 1026,5 30
13.11.2017 20:00:00 7,9 3,5 4 2 NE 1026,5 30
13.11.2017 19:00:00 8,9 3,5 8 4 NE 1026,1 25
13.11.2017 18:00:00 10,1 3,9 8 4 NNE 1025,9 30

tt = Température de l'air
td = dewpoint
ff = Vitesse du vent
dd = Direction du vent
ppp = reduced air pressure
vv = visibility

stations d'obs. à proximité